AGROMETEOROLOŠKI PORTAL

vinorodna pokrajina

Temelj dobrega kmetovanja

Pregled podatkov za lokacijo Hruševlje, meteorološka postaja 515412

Pregled senzorjev na lokaciji

ID Ime Zadnja
vrednost
Datum in čas
meritve
(lokalni čas)
Tip
senzorja
6549 Omočenost lista (1,5 m) (U) 0 U 27.1.2023 02:30 A730WET
6551 Padavine (mm) 0 mm 27.1.2023 02:30 Generic 0.2 mm
6553 Relativna zračna vlaga (2 m) (%RH) 52 %RH 27.1.2023 02:30 Generic 0 - 100 %
6552 Temperatura (2 m) (°C) 3,4 °C 27.1.2023 02:30 Generic -40 - +60 °C

Pregled podatkov zadnjih 24 ur

Zap.
št.
Datum in čas
(lokalni čas)
Hruševlje
Omočenost
lista
(1,5
m)
Padavine Relativna
zračna
vlaga
(2
m)
Temperatura
(2
m)
1 27.1.2023 02:30
2 27.1.2023 02:00 0 0 51,7 3,4
3 27.1.2023 01:30 0 0 51,8 3,5
4 27.1.2023 01:00 0 0 52,7 3,4
5 27.1.2023 00:30 0 0 52,6 3,5
6 27.1.2023 00:00 0 0 52,6 3,5
7 26.1.2023 23:30 0 0 52,2 3,6
8 26.1.2023 23:00 0 0 52,8 3,5
9 26.1.2023 22:30 0 0 52,8 3,5
10 26.1.2023 22:00 0 0 52,5 3,6
11 26.1.2023 21:30 0 0 54,3 3,1
12 26.1.2023 21:00 0 0 54,4 3,1
13 26.1.2023 20:30 0 0 53,3 3,4
14 26.1.2023 20:00 0 0 54,9 3
15 26.1.2023 19:30 0 0 55,9 2,7
16 26.1.2023 19:00 0 0 53,1 3,4
17 26.1.2023 18:30 0 0 52,7 3,6
18 26.1.2023 18:00 0 0 51,8 3,9
19 26.1.2023 17:30 0 0 51,7 4
20 26.1.2023 17:00 0 0 50,8 4,5
21 26.1.2023 16:30 0 0 48,8 5,4
22 26.1.2023 16:00 0 0 47,9 6
23 26.1.2023 15:30 0 0 47,9 6,5
24 26.1.2023 15:00 0 0 47,8 7
25 26.1.2023 14:30 0 0 48,3 7,1
26 26.1.2023 14:00 0 0 47,9 7,2
27 26.1.2023 13:30 0 0 49,6 6,9
28 26.1.2023 13:00 0 0 50,1 6,5
29 26.1.2023 12:30 0 0 50,4 6,6
30 26.1.2023 12:00 0 0 50,3 6,4
31 26.1.2023 11:30 0 0 51,5 5,9
32 26.1.2023 11:00 0 0 53,3 5,1
33 26.1.2023 10:30 0 0 52,9 5,4
34 26.1.2023 10:00 0 0 52,2 5,7
35 26.1.2023 09:30 0 0 53,3 5,4
36 26.1.2023 09:00 0 0 54 5
37 26.1.2023 08:30 0 0 54,5 4,7
38 26.1.2023 08:00 0 0 55,6 4,3
39 26.1.2023 07:30 0 0 55,5 4,4
40 26.1.2023 07:00 0 0 56,2 4,3
41 26.1.2023 06:30 0 0 55,5 4,5
42 26.1.2023 06:00 0 0 55,1 4,6
43 26.1.2023 05:30 0 0 55,4 4,6
44 26.1.2023 05:00 0 0 55,7 4,5
45 26.1.2023 04:30 0 0 55,4 4,5
46 26.1.2023 04:00 0 0 55,1 4,7
47 26.1.2023 03:30 0 0 55,9 4,6
48 26.1.2023 03:00 0 0 55,7 4,8